Rochester, MN
on Sunday, March 3, 2013

Sunday
Previous Day Next Day
Daily Summary
 ActualAverageRecord
Temperature
Mean Temperature °F 26°F  
Max Temperature 30°F 34°F 56°F (1946)
Min Temperature 13°F 19°F -17°F (1913)
Degree Days
Heating Degree Days 43 39  
Month to date heating degree days 134 117  
Since 1 July heating degree days 5585 5978  
Cooling Degree Days 0 0  
Month to date cooling degree days 0 0  
Year to date cooling degree days 0 0  
Moisture
Dew Point 10°F   
Average Humidity 62    
Maximum Humidity 80    
Minimum Humidity 43    
Precipitation
Precipitation 0.00 in 0.05 in 0.96 in (1966)
Month to date precipitation T 0.14  
Year to date precipitation 2.00 1.83  
Snow
Snow 0.00 in 0.30 in 9.00 in (1985)
Month to date snowfall T 1.0  
Since 1 July snowfall 31.8 40.9  
Snow Depth 5.00 in   
Wind
Wind Speed 8 mph   
Max Wind Speed 14 mph   
Max Gust Speed 17 mph   
Visibility 10 miles   
Events     

Key: T is trace of precipitation, MM is missing value
Source: NWS Daily Summary
Time(CST)TemperatureDew PointHumidity Pressure Visibility Wind DirectionWind SpeedGust SpeedPrecipitationEvents Conditions
12:54 AM 16.0°F 8.1°F 71% 30.20 in 10.0 miles Calm Calm - N/A   Overcast
1:54 AM 15.1°F 7.0°F 70% 30.19 in 10.0 miles Calm Calm - N/A   Clear
2:54 AM 15.8°F 8.6°F 73% 30.10 in 10.0 miles South 3.5 mph - N/A   Overcast
3:54 AM 16.0°F 10.0°F 77% 30.16 in 10.0 miles SSE 3.5 mph - N/A   Overcast
4:54 AM 17.1°F 10.0°F 74% 30.16 in 10.0 miles SSE 3.5 mph - N/A   Overcast
5:54 AM 16.0°F 7.0°F 68% 30.17 in 10.0 miles SE 4.6 mph - N/A   Partly Cloudy
6:54 AM 14.0°F 6.1°F 71% 30.17 in 10.0 miles SE 6.9 mph - N/A   Overcast
7:54 AM 14.0°F 5.0°F 67% 30.18 in 10.0 miles ESE 6.9 mph - N/A   Clear
8:54 AM 18.0°F 8.1°F 65% 30.17 in 10.0 miles SE 5.8 mph - N/A   Clear
9:54 AM 21.9°F 9.0°F 58% 30.15 in 10.0 miles SE 10.4 mph - N/A   Clear
10:54 AM 24.1°F 10.0°F 55% 30.15 in 10.0 miles SE 11.5 mph - N/A   Clear
11:54 AM 26.1°F 10.0°F 51% 30.14 in 10.0 miles ESE 11.5 mph - N/A   Clear
12:54 PM 28.0°F 10.9°F 49% 30.10 in 10.0 miles SE 11.5 mph - N/A   Clear
1:54 PM 28.9°F 10.0°F 45% 30.08 in 10.0 miles SE 11.5 mph - N/A   Clear
2:54 PM 30.0°F 10.0°F 43% 30.07 in 10.0 miles ESE 11.5 mph - N/A   Clear
3:54 PM 30.2°F 12.2°F 47% 30.00 in 10.0 miles SE 10.4 mph - N/A   Clear
4:54 PM 28.0°F 12.9°F 53% 30.06 in 10.0 miles SE 10.4 mph - N/A   Clear
5:54 PM 27.0°F 10.9°F 51% 30.06 in 10.0 miles SE 9.2 mph - N/A   Clear
6:54 PM 24.1°F 10.0°F 55% 30.06 in 10.0 miles SE 10.4 mph - N/A   Clear
7:54 PM 21.0°F 9.0°F 60% 30.06 in 10.0 miles ESE 9.2 mph - N/A   Clear
8:54 PM 23.0°F 9.0°F 55% 30.06 in 10.0 miles SE 9.2 mph - N/A   Clear
9:54 PM 24.1°F 10.9°F 57% 30.05 in 10.0 miles SE 11.5 mph - N/A   Mostly Cloudy
10:54 PM 24.1°F 10.9°F 57% 30.04 in 10.0 miles SE 12.7 mph - N/A   Partly Cloudy
11:54 PM 24.1°F 12.0°F 60% 30.04 in 10.0 miles SSE 13.8 mph - N/A   Overcast
Astronomy
Sunrise:06:42 AM (CST) Moon Rise:No Moon Rise/
Sunset:06:01 PM (CST) Moon Set:09:45 AM (CST)3/3
Moon Phase
Mar. 03 Mar. 04 Mar. 11 Mar. 19 Mar. 27

Copyright © 2017 The Weather Underground, Inc.